Date_and_time,latitude,longitude,wind_speed,RelWindDirFrom,WindDirFrom,air_pressure,air_temperature,relative_humidity,Temp,platform_speed_wrt_ground,air_pressure_at_mean_sea_level,platform_orientation
2018-10-20 23:40,50.630435,-96.9807383333333,8.2,9.8,168,997.01,1.0,62,4.41,0.0,1024.92,270.0
2018-10-20 23:50,50.630435,-96.98074,8.4,10.2,171,996.97,1.0,62,4.41,0.0,1024.92,270.0
2018-10-21 00:00,50.630435,-96.98074,7.5,9.7,184,996.98,1.0,63,4.40,0.0,1024.96,131.7
2018-10-21 00:10,50.6304366666667,-96.9807433333333,6.6,8.5,191,996.83,0.7,65,4.40,0.0,1024.85,131.7
2018-10-21 00:20,50.6304366666667,-96.980745,5.3,7.2,202,996.79,0.6,62,4.40,0.0,1024.82,131.7
2018-10-21 00:30,50.6304366666667,-96.980745,5.6,7.4,197,996.46,0.5,61,4.39,0.0,1024.49,131.7
2018-10-21 00:40,50.6304366666667,-96.980745,5.1,6.5,190,996.13,0.5,61,4.39,0.0,1024.16,131.7
2018-10-21 00:50,50.630435,-96.9807466666667,5.7,7.2,188,995.91,0.4,62,4.39,0.0,1023.92,131.7
2018-10-21 01:00,50.630435,-96.98077,5.4,6.5,191,995.84,0.3,63,4.39,0.0,1023.86,310.6
2018-10-21 01:10,50.6304316666667,-96.9807583333333,5.2,6.8,197,995.89,0.2,62,4.39,0.0,1023.92,310.6
2018-10-21 01:20,50.6304316666667,-96.9807566666667,4.5,6.8,186,995.63,0.2,61,4.38,0.0,1023.65,310.6
2018-10-21 01:30,50.6304266666667,-96.9807466666667,6.1,7.6,189,995.32,0.2,62,4.38,0.0,1023.33,310.6
2018-10-21 01:40,50.6304283333333,-96.9807483333333,6.3,7.7,191,995.20,0.2,63,4.38,0.0,1023.21,310.6
2018-10-21 01:50,50.63043,-96.9807483333333,5.9,7.2,192,995.28,0.2,63,4.38,0.0,1023.30,310.6
2018-10-21 02:00,50.63043,-96.9807516666667,5.1,6.6,191,995.41,0.1,63,4.38,0.0,1023.44,14.5
2018-10-21 02:10,50.63043,-96.9807516666667,5.6,7.1,187,995.20,0.1,62,4.37,0.0,1023.24,14.5
2018-10-21 02:20,50.63043,-96.9807533333333,6.3,7.6,183,995.00,0.0,63,4.36,0.0,1023.04,14.5
2018-10-21 02:30,50.6304283333333,-96.9807533333333,7.0,8.6,178,994.70,0.0,64,4.36,0.0,1022.73,14.5
2018-10-21 02:40,50.6304283333333,-96.9807533333333,8.4,9.8,181,994.33,0.1,63,4.36,0.0,1022.35,14.5
2018-10-21 02:50,50.6304333333333,-96.9807666666667,9.8,11.9,172,993.67,0.2,65,4.35,0.0,1021.67,14.5
2018-10-21 03:00,50.6304266666667,-96.98075,12.0,14.9,174,993.31,0.7,61,4.35,0.0,1021.28,194.5
2018-10-21 03:10,50.6304283333333,-96.9807566666667,12.6,15.1,174,993.10,0.9,60,4.34,0.0,1021.05,194.5
2018-10-21 03:20,50.6304266666667,-96.9807566666667,11.9,14.0,179,993.14,0.9,60,4.33,0.0,1021.10,194.5
2018-10-21 03:30,50.6304283333333,-96.9807583333333,10.9,13.4,186,993.23,0.9,61,4.32,0.0,1021.19,194.5
2018-10-21 03:40,50.6304266666667,-96.980755,9.1,11.6,188,993.43,0.8,60,4.31,0.0,1021.40,194.5
2018-10-21 03:50,50.6304266666667,-96.9807533333333,9.8,11.8,187,993.29,0.7,58,4.31,0.0,1021.27,194.5
2018-10-21 04:00,50.630395,-96.9807266666667,10.0,12.5,189,993.45,0.6,59,4.31,0.0,1021.44,150.7
2018-10-21 04:10,50.63042,-96.980745,10.4,12.4,182,993.17,0.4,60,4.29,0.0,1021.15,150.7
2018-10-21 04:20,50.63042,-96.9807383333333,10.7,13.6,179,992.92,0.3,61,4.28,0.0,1020.91,150.7
2018-10-21 04:30,50.630425,-96.980745,10.2,14.1,186,992.93,0.3,62,4.27,0.0,1020.92,150.7
2018-10-21 04:40,50.6304233333333,-96.980745,13.2,17.4,180,992.41,0.3,61,4.27,0.0,1020.37,150.7
2018-10-21 04:50,50.6304233333333,-96.9807466666667,15.9,18.9,181,991.78,0.4,62,4.27,0.0,1019.69,150.7
2018-10-21 05:00,50.630425,-96.980745,15.1,19.5,186,991.66,0.6,62,4.26,0.0,1019.55,90.0
2018-10-21 05:10,50.630425,-96.9807466666667,15.3,19.9,185,991.41,0.6,61,4.25,0.0,1019.29,90.0
2018-10-21 05:20,50.630425,-96.9807466666667,14.7,20.1,183,991.19,0.7,59,4.25,0.0,1019.07,90.0
2018-10-21 05:30,50.6304266666667,-96.9807466666667,16.1,20.3,185,990.76,0.9,58,4.24,0.0,1018.62,90.0
2018-10-21 05:40,50.6304266666667,-96.9807333333333,17.9,22.1,186,990.31,1.0,58,4.24,0.0,1018.16,90.0
2018-10-21 05:50,50.63043,-96.98074,16.6,21.5,183,990.15,0.9,58,4.23,0.0,1018.00,90.0
2018-10-21 06:00,50.6304316666667,-96.9807433333333,16.0,20.2,185,989.98,0.9,59,4.22,0.0,1017.83,12.6
2018-10-21 06:10,50.6304316666667,-96.9807433333333,15.5,19.5,181,989.69,0.9,60,4.21,0.0,1017.54,12.6
2018-10-21 06:20,50.6304316666667,-96.980745,16.0,20.9,178,989.36,1.0,60,4.21,0.0,1017.20,12.6
2018-10-21 06:30,50.63043,-96.9807433333333,17.2,21.2,176,989.04,0.9,61,4.20,0.0,1016.87,12.6
2018-10-21 06:40,50.63043,-96.98074,16.4,20.6,177,988.93,0.8,62,4.20,0.0,1016.76,12.6
2018-10-21 06:50,50.6304316666667,-96.980745,16.1,20.3,177,988.70,0.7,62,4.19,0.0,1016.52,12.6
2018-10-21 07:00,50.6304316666667,-96.9807416666667,15.7,20.6,178,988.62,0.8,62,4.18,0.0,1016.43,347.8
2018-10-21 07:10,50.6304416666667,-96.9807966666667,18.1,21.6,176,988.24,0.9,62,4.17,0.0,1016.04,347.8
2018-10-21 07:20,50.630435,-96.980755,17.2,22.1,179,988.19,0.9,62,4.16,0.0,1015.96,347.8
2018-10-21 07:30,50.630435,-96.980755,16.3,20.1,179,987.99,0.8,62,4.15,0.0,1015.76,347.8
2018-10-21 07:40,50.630435,-96.980755,13.7,18.5,182,987.98,0.7,62,4.15,0.0,1015.76,347.8
2018-10-21 07:50,50.630435,-96.980755,14.4,18.0,181,987.77,0.9,61,4.14,0.0,1015.53,347.8
2018-10-21 08:00,50.6304333333333,-96.9807516666667,15.0,19.4,180,987.62,1.0,60,4.14,0.0,1015.38,311.7
2018-10-21 08:10,50.6304316666667,-96.98075,13.5,17.7,176,987.58,0.9,60,4.13,0.0,1015.33,311.7
2018-10-21 08:20,50.6304316666667,-96.98075,14.2,17.6,179,987.42,0.9,60,4.13,0.0,1015.18,311.7
2018-10-21 08:30,50.6304216666667,-96.98072,12.9,17.5,176,987.04,0.9,61,4.13,0.0,1014.80,311.7
2018-10-21 08:40,50.6304283333333,-96.9807433333333,14.6,19.9,164,986.04,1.0,64,4.13,0.0,1013.76,311.7
2018-10-21 08:50,50.630425,-96.9807416666667,16.8,21.6,172,985.94,1.1,64,4.13,0.0,1013.65,311.7
2018-10-21 09:00,50.6304283333333,-96.9807416666667,14.8,18.2,176,985.97,1.0,63,4.12,0.0,1013.68,360.0
2018-10-21 09:10,50.6304283333333,-96.9807433333333,13.0,16.0,181,985.99,1.1,61,4.11,0.0,1013.70,360.0
2018-10-21 09:20,50.6304283333333,-96.9807416666667,11.6,14.3,180,985.88,1.1,61,4.10,0.0,1013.59,360.0
2018-10-21 09:30,50.6304383333333,-96.9807633333333,11.3,14.4,180,985.84,1.1,61,4.10,0.0,1013.56,360.0
2018-10-21 09:40,50.6304366666667,-96.9807483333333,8.3,12.6,187,986.08,1.2,60,4.11,0.0,1013.78,360.0
2018-10-21 09:50,50.6304333333333,-96.9807483333333,7.1,10.8,192,986.11,1.3,59,4.11,0.0,1013.80,360.0
2018-10-21 10:00,50.630435,-96.9807483333333,8.7,11.5,189,986.15,1.5,59,4.10,0.0,1013.84,311.7
2018-10-21 10:10,50.630435,-96.98075,10.7,13.0,187,985.92,1.6,57,4.10,0.0,1013.61,311.7
2018-10-21 10:20,50.630435,-96.9807516666667,11.8,15.3,186,985.29,1.5,59,4.09,0.0,1012.96,311.7
2018-10-21 10:30,50.630435,-96.9807533333333,9.0,12.9,192,985.44,1.5,59,4.08,0.0,1013.11,311.7
2018-10-21 10:40,50.630445,-96.9807483333333,8.5,11.7,192,985.37,1.4,59,4.07,0.0,1013.03,311.7
2018-10-21 10:50,50.630435,-96.9807716666667,8.6,11.5,190,985.27,1.4,60,4.08,0.0,1012.94,311.7
2018-10-21 11:00,50.63041,-96.9807716666667,8.1,10.5,190,985.36,1.3,60,4.07,0.0,1013.04,207.4
2018-10-21 11:10,50.63043,-96.98077,6.9,10.7,194,985.70,1.2,61,4.06,0.0,1013.38,207.4
2018-10-21 11:20,50.630425,-96.9807616666667,8.9,11.9,187,985.52,1.0,61,4.05,0.0,1013.20,207.4
2018-10-21 11:30,50.6304216666667,-96.9807583333333,7.8,10.9,194,985.65,0.8,63,4.05,0.0,1013.35,207.4
2018-10-21 11:40,50.6304216666667,-96.9807583333333,6.9,9.0,196,985.69,0.6,64,4.06,0.0,1013.39,207.4
2018-10-21 11:50,50.6304216666667,-96.9807566666667,5.8,8.3,197,985.74,0.4,64,4.05,0.0,1013.45,207.4
2018-10-21 12:00,50.6304216666667,-96.980755,5.9,8.6,187,985.52,0.2,65,4.04,0.0,1013.23,240.8
2018-10-21 12:10,50.6304333333333,-96.9807433333333,5.0,8.3,202,985.70,0.0,65,4.04,0.0,1013.42,240.8
2018-10-21 12:20,50.6304266666667,-96.980755,4.1,5.3,182,985.49,-0.2,67,4.05,0.0,1013.22,240.8
2018-10-21 12:30,50.6304083333333,-96.980745,4.9,6.1,182,985.36,-0.3,67,4.05,0.0,1013.10,240.8
2018-10-21 12:40,50.6304116666667,-96.9807433333333,4.7,5.6,188,985.47,-0.3,68,4.03,0.0,1013.21,240.8
2018-10-21 12:50,50.630415,-96.9807416666667,5.2,6.4,188,985.41,-0.5,69,4.03,0.0,1013.16,240.8
2018-10-21 13:00,50.630415,-96.9807433333333,5.0,6.7,191,985.47,-0.5,71,4.03,0.0,1013.24,360.0
2018-10-21 13:10,50.630415,-96.980745,4.7,5.9,190,985.55,-0.7,71,4.02,0.0,1013.33,360.0
2018-10-21 13:20,50.6304116666667,-96.9807533333333,5.2,6.4,185,985.60,-0.7,71,4.02,0.0,1013.40,360.0
2018-10-21 13:30,50.6304266666667,-96.980755,4.4,6.1,202,985.77,-0.7,72,4.01,0.0,1013.58,360.0
2018-10-21 13:40,50.630425,-96.9807583333333,3.7,5.0,167,985.60,-0.8,71,3.99,0.0,1013.42,360.0
2018-10-21 13:50,50.630425,-96.98076,4.8,6.2,166,985.49,-0.7,71,3.97,0.0,1013.31,360.0
2018-10-21 14:00,50.630425,-96.9807583333333,5.1,6.0,183,985.67,-0.4,71,3.95,0.0,1013.49,3.2
2018-10-21 14:10,50.6304233333333,-96.98076,5.4,6.3,181,985.85,-0.4,69,3.94,0.0,1013.69,3.2
2018-10-21 14:20,50.6303983333333,-96.9807466666667,5.0,6.0,179,985.79,-0.3,70,3.93,0.0,1013.63,3.2
2018-10-21 14:30,50.6304233333333,-96.980765,4.6,6.0,178,985.65,-0.1,69,3.91,0.0,1013.47,3.2
2018-10-21 14:40,50.6304116666667,-96.98075,5.2,7.1,182,985.57,0.1,68,3.90,0.0,1013.38,3.2
2018-10-21 14:50,50.6304233333333,-96.98077,6.7,8.9,181,985.48,0.3,67,3.91,0.0,1013.29,3.2
2018-10-21 15:00,50.6304166666667,-96.9807533333333,5.8,8.3,201,985.78,0.7,66,3.91,0.0,1013.58,167.4
2018-10-21 15:10,50.6304166666667,-96.980745,5.2,8.1,220,985.97,1.2,63,3.91,0.0,1013.75,167.4
2018-10-21 15:20,50.630405,-96.98075,5.8,7.9,215,986.02,1.6,62,3.90,0.0,1013.79,167.4
2018-10-21 15:30,50.6304083333333,-96.9807516666667,5.2,7.8,218,986.07,2.1,61,3.90,0.0,1013.82,167.4
2018-10-21 15:40,50.63041,-96.9807516666667,5.2,8.1,248,986.10,2.8,58,3.89,0.0,1013.80,167.4
2018-10-21 15:50,50.630435,-96.980755,4.7,7.0,252,986.11,3.4,56,3.90,0.0,1013.77,167.4
2018-10-21 16:00,50.6304033333333,-96.9807783333333,6.2,9.2,246,986.21,4.0,53,3.90,0.0,1013.84,248.5
2018-10-21 16:10,50.6304066666667,-96.9807633333333,3.6,7.0,265,986.29,4.8,51,3.91,0.0,1013.88,248.5
2018-10-21 16:20,50.6304116666667,-96.980765,3.8,7.0,260,986.39,5.4,48,3.90,0.0,1013.94,248.5
2018-10-21 16:30,50.6304166666667,-96.9807633333333,4.3,6.7,246,986.40,5.7,47,3.91,0.0,1013.92,248.5
2018-10-21 16:40,50.6304216666667,-96.980765,4.0,8.9,259,986.36,6.2,45,3.93,0.0,1013.85,248.5
2018-10-21 16:50,50.6304233333333,-96.9807633333333,4.5,8.4,261,986.33,6.9,42,3.93,0.0,1013.76,248.5
2018-10-21 17:00,50.6304283333333,-96.9807566666667,3.9,7.9,254,986.32,7.5,41,3.94,0.0,1013.70,90.0
2018-10-21 17:10,50.6304233333333,-96.9807616666667,4.4,6.7,247,986.29,7.9,39,3.93,0.0,1013.62,90.0
2018-10-21 17:20,50.6304233333333,-96.98076,4.9,7.8,251,986.21,8.4,38,3.94,0.0,1013.50,90.0
2018-10-21 17:30,50.6304233333333,-96.9807583333333,5.4,8.1,275,986.13,8.9,36,3.96,0.0,1013.35,90.0
2018-10-21 17:40,50.63042,-96.9807566666667,6.6,9.1,247,986.08,9.3,36,3.97,0.0,1013.26,90.0
2018-10-21 17:50,50.63043,-96.9807666666667,6.1,11.7,253,986.02,9.6,35,3.98,0.0,1013.14,90.0
2018-10-21 18:00,50.6304183333333,-96.9807566666667,6.2,9.0,251,985.94,10.0,35,4.00,0.0,1013.00,270.0
2018-10-21 18:10,50.6304366666667,-96.98075,7.7,12.7,243,985.91,10.4,35,4.01,0.0,1012.93,270.0
2018-10-21 18:20,50.6304083333333,-96.9807583333333,7.7,12.2,238,985.88,10.7,35,4.02,0.0,1012.86,270.0
2018-10-21 18:30,50.6304166666667,-96.9807583333333,7.9,11.6,234,985.75,10.8,35,4.03,0.0,1012.71,270.0
2018-10-21 18:40,50.6304116666667,-96.9807466666667,6.2,8.9,243,985.59,11.3,35,4.08,0.0,1012.48,270.0
2018-10-21 18:50,50.6304116666667,-96.9807466666667,8.2,11.8,234,985.48,11.5,35,4.13,0.0,1012.34,270.0
2018-10-21 19:00,50.6304133333333,-96.98075,8.7,12.8,236,985.41,11.8,35,4.17,0.0,1012.22,63.3
2018-10-21 19:10,50.6304216666667,-96.980755,10.1,16.3,236,985.34,12.2,35,4.21,0.0,1012.11,63.3
2018-10-21 19:20,50.6304,-96.9807583333333,10.6,16.0,239,985.20,12.5,35,4.25,0.0,1011.93,63.3
2018-10-21 19:30,50.6304,-96.9807533333333,9.1,14.0,225,985.02,12.6,35,4.27,0.0,1011.72,63.3
2018-10-21 19:40,50.6304033333333,-96.98075,8.6,14.3,238,984.94,12.9,35,4.28,0.0,1011.61,63.3
2018-10-21 19:50,50.63042,-96.980745,9.7,16.1,243,984.85,13.3,35,4.30,0.0,1011.48,63.3
2018-10-21 20:00,50.63042,-96.9807416666667,11.3,17.9,244,984.76,13.6,34,4.34,0.0,1011.36,119.2
2018-10-21 20:10,50.6304266666667,-96.9807483333333,10.0,15.9,243,984.68,13.8,34,4.35,0.0,1011.25,119.2
2018-10-21 20:20,50.6304283333333,-96.9807483333333,11.6,17.4,226,984.60,13.8,34,4.34,0.0,1011.16,119.2
2018-10-21 20:30,50.63043,-96.9807483333333,11.7,15.8,234,984.47,13.7,35,4.34,0.0,1011.01,119.2
2018-10-21 20:40,50.6304316666667,-96.98075,12.0,16.6,232,984.43,13.7,35,4.37,0.0,1010.96,119.2
2018-10-21 20:50,50.6304133333333,-96.9807583333333,11.5,15.7,239,984.35,13.8,34,4.38,0.0,1010.85,119.2
2018-10-21 21:00,50.6304283333333,-96.9807516666667,11.3,17.3,249,984.26,14.3,33,4.40,0.0,1010.72,14.5
2018-10-21 21:10,50.6304266666667,-96.9807483333333,10.4,15.5,255,984.11,14.4,33,4.46,0.0,1010.55,14.5
2018-10-21 21:20,50.6304316666667,-96.9807466666667,9.6,13.8,242,983.99,14.4,33,4.50,0.0,1010.42,14.5
2018-10-21 21:30,50.6304366666667,-96.9807483333333,10.0,15.3,239,983.94,14.4,33,4.53,0.0,1010.36,14.5
2018-10-21 21:40,50.6304333333333,-96.980745,10.9,16.2,242,983.89,14.5,33,4.55,0.0,1010.28,14.5
2018-10-21 21:50,50.6303983333333,-96.9807583333333,9.5,14.7,243,983.80,14.7,32,4.54,0.0,1010.17,14.5
2018-10-21 22:00,50.6304283333333,-96.9807583333333,8.8,15.5,245,983.78,14.9,31,4.54,0.0,1010.13,318.7
2018-10-21 22:10,50.630435,-96.9807483333333,9.1,14.3,247,983.71,15.0,30,4.56,0.0,1010.05,318.7
2018-10-21 22:20,50.63043,-96.9807516666667,8.6,12.9,247,983.61,15.0,30,4.57,0.0,1009.95,318.7
2018-10-21 22:30,50.6304283333333,-96.9807516666667,7.8,10.9,246,983.57,15.0,30,4.59,0.0,1009.92,318.7
2018-10-21 22:40,50.6304283333333,-96.98075,8.4,12.9,242,983.55,14.8,30,4.61,0.0,1009.90,318.7
2018-10-21 22:50,50.6304283333333,-96.9807466666667,7.8,12.4,237,983.57,14.6,31,4.62,0.0,1009.91,318.7
2018-10-21 23:00,50.6304283333333,-96.9807466666667,7.4,9.6,228,983.53,14.2,32,4.64,0.0,1009.88,38.0
2018-10-21 23:10,50.6304283333333,-96.9807466666667,7.8,11.2,230,983.53,13.7,32,4.65,0.0,1009.90,38.0
2018-10-21 23:20,50.6304066666667,-96.9807283333333,7.4,9.9,232,983.58,13.2,33,4.64,0.0,1009.97,38.0
2018-10-21 23:30,50.6304283333333,-96.9807483333333,8.0,11.0,232,983.60,12.8,33,4.65,0.0,1010.00,38.0
2018-10-21 23:40,50.6304266666667,-96.980745,7.6,10.9,233,983.59,12.5,34,4.65,0.0,1010.01,38.0
2018-10-21 23:50,50.63043,-96.980745,7.4,10.0,231,983.56,12.1,34,4.65,0.0,1009.99,38.0
